Home   Weather   Fredericton   Past weeks

Flag for Canada Past Weather in Fredericton, New Brunswick, Canada — Yesterday and Last 2 Weeks

Now
46 °F

Sunny.


Feels Like: 41 °F
Forecast: 31 / 47 °F
Wind: 13 mph from Northwest

Location: Fredericton

Current Time: Apr 24, 2017 at 12:25:40 pm

Latest Report: Apr 24, 2017 at 12:00 pm


Visibility: 9 mi

Pressure: 30.18 "Hg

Humidity: 50%

Dew Point: 28 °F

Location of FrederictonLocation

Past Weather in Fredericton — Graph

°F

Fredericton Temperature Yesterday

Maximum temperature yesterday: 50 °F (at 6:00 pm)
Minimum temperature yesterday: 32 °F (at 3:24 am)
Average temperature yesterday: 38 °F

High & Low Weather Summary for the Past Weeks

 TemperatureHumidityPressure
High66 °F (Apr 11, 12:43 pm)100% (Apr 12, 5:25 am)30.67 "Hg (Apr 12, 5:25 am)
Low27 °F (Apr 19, 4:00 am)22% (Apr 15, 3:00 pm)29.63 "Hg (Apr 17, 12:41 am)
Average40 °F82%30.10 "Hg
* Reported Apr 9 11:00 am — Apr 24 11:00 am, Fredericton, Weather by CustomWeather, © 2017

Note: Actual official high and low records may vary slightly from our data, if they occured in-between our weather recording intervals... More about our weather records

Advertising

Fredericton Weather History for the Previous 24 Hours

Scroll right to see more
 ConditionsComfort  
Time TempWeatherWind HumidityBarometerVisibility
11:00 am
Mon, Apr 24
45 °FPassing clouds.15 mph61%30.17 "Hg9 mi
10:32 am45 °FScattered clouds.10 mph66%30.17 "Hg9 mi
10:00 am43 °FOvercast.10 mph76%30.16 "Hg9 mi
9:00 am43 °FMostly cloudy.12 mph81%30.13 "Hg9 mi
8:53 am43 °FPartly sunny.10 mph81%30.12 "Hg9 mi
8:00 am39 °FOvercast.6 mph93%30.09 "Hg9 mi
7:00 am36 °FOvercast.No wind100%30.07 "Hg9 mi
6:00 am34 °FClear.6 mph100%30.03 "Hg9 mi
5:21 am36 °FPassing clouds.7 mph100%30.01 "Hg9 mi
5:00 am37 °FPassing clouds.10 mph93%30.01 "Hg9 mi
4:00 am37 °FPassing clouds.10 mph93%30.00 "Hg9 mi
3:00 am39 °FMostly cloudy.7 mph93%30.00 "Hg9 mi
2:00 am41 °FPassing clouds.8 mph87%29.98 "Hg9 mi
1:00 am39 °FPassing clouds.5 mph93%29.97 "Hg9 mi
12:00 am39 °FPassing clouds.8 mph93%29.98 "Hg9 mi
11:00 pm
Sun, Apr 23
39 °FPassing clouds.9 mph93%29.98 "Hg9 mi
10:00 pm37 °FClear.7 mph93%29.98 "Hg9 mi
9:00 pm41 °FClear.3 mph87%29.97 "Hg9 mi
8:00 pm48 °FSunny.7 mph66%29.96 "Hg9 mi
7:00 pm50 °FSunny.6 mph58%29.96 "Hg9 mi
6:00 pm50 °FPassing clouds.8 mph58%29.97 "Hg9 mi
5:00 pm48 °FPartly sunny.9 mph62%29.97 "Hg9 mi
4:00 pm46 °FOvercast.10 mph62%29.98 "Hg9 mi
3:00 pm45 °FOvercast.8 mph66%30.00 "Hg9 mi
2:29 pm43 °FMostly cloudy.9 mph76%30.00 "Hg9 mi
2:19 pm43 °FMostly cloudy.10 mph76%30.00 "Hg9 mi
2:00 pm45 °FOvercast.8 mph71%30.00 "Hg9 mi
1:00 pm43 °FOvercast.8 mph71%29.99 "Hg9 mi
12:44 pm43 °FOvercast.7 mph71%30.00 "Hg9 mi
12:00 pm43 °FMostly cloudy.7 mph76%29.99 "Hg9 mi
Weather by CustomWeather, © 2017

See weather overviewHow to use our weather pages